TimeEDT,TemperatureF,Dew PointF,Humidity,Sea Level PressureIn,VisibilityMPH,Wind Direction,Wind SpeedMPH,Gust SpeedMPH,PrecipitationIn,Events,Conditions,WindDirDegrees,DateUTC
12:51 AM,48.9,43.0,80,30.95,10.0,Calm,Calm,-,N/A,,Clear,0,2013-05-28 04:51:00
1:51 AM,46.9,43.0,86,30.95,10.0,Calm,Calm,-,N/A,,Clear,0,2013-05-28 05:51:00
2:51 AM,43.9,41.0,90,30.95,10.0,Calm,Calm,-,N/A,,Clear,0,2013-05-28 06:51:00
3:51 AM,43.9,39.9,86,30.96,10.0,Calm,Calm,-,N/A,,Clear,0,2013-05-28 07:51:00
4:51 AM,41.9,38.8,89,30.96,10.0,Calm,Calm,-,N/A,,Clear,0,2013-05-28 08:51:00
5:51 AM,41.9,38.8,89,30.98,10.0,Calm,Calm,-,N/A,,Clear,0,2013-05-28 09:51:00
6:51 AM,45.9,39.9,80,30.99,10.0,NNW,4.6,-,N/A,,Clear,330,2013-05-28 10:51:00
7:51 AM,50.9,41.9,71,30.99,10.0,Calm,Calm,-,N/A,,Clear,0,2013-05-28 11:51:00
8:51 AM,59.9,43.0,54,30.99,10.0,Calm,Calm,-,N/A,,Clear,0,2013-05-28 12:51:00
9:51 AM,63.9,37.9,38,30.99,10.0,ESE,4.6,-,N/A,,Clear,110,2013-05-28 13:51:00
10:51 AM,68.0,36.9,32,30.98,10.0,ESE,8.1,-,N/A,,Clear,120,2013-05-28 14:51:00
11:51 AM,68.9,36.9,31,30.98,10.0,ESE,5.8,-,N/A,,Clear,110,2013-05-28 15:51:00
12:51 PM,70.0,36.9,30,30.96,10.0,Variable,4.6,-,N/A,,Clear,0,2013-05-28 16:51:00
1:51 PM,72.9,38.8,29,30.94,10.0,Variable,5.8,-,N/A,,Clear,0,2013-05-28 17:51:00
2:51 PM,73.9,37.9,27,30.93,10.0,Variable,3.5,-,N/A,,Clear,0,2013-05-28 18:51:00
3:51 PM,73.9,37.9,27,30.92,10.0,Calm,Calm,-,N/A,,Clear,0,2013-05-28 19:51:00
4:51 PM,73.9,41.0,30,30.91,10.0,East,15.0,-,N/A,,Clear,90,2013-05-28 20:51:00
5:51 PM,70.0,39.9,33,30.91,10.0,SE,10.4,-,N/A,,Clear,140,2013-05-28 21:51:00
6:51 PM,68.0,39.9,36,30.90,10.0,ESE,9.2,-,N/A,,Clear,120,2013-05-28 22:51:00
7:51 PM,64.9,43.9,46,30.91,10.0,SE,6.9,-,N/A,,Clear,130,2013-05-28 23:51:00
8:51 PM,61.9,46.9,58,30.91,10.0,Calm,Calm,-,N/A,,Clear,0,2013-05-29 00:51:00
9:51 PM,57.9,47.8,69,30.92,10.0,Calm,Calm,-,N/A,,Clear,0,2013-05-29 01:51:00
10:51 PM,55.9,48.9,77,30.93,10.0,Calm,Calm,-,N/A,,Clear,0,2013-05-29 02:51:00
11:51 PM,54.0,48.9,83,30.92,10.0,Calm,Calm,-,N/A,,Clear,0,2013-05-29 03:51:00